Location: Kerberlivit
(48.2787°N, 4.5413°W)
Time: 09:19:38
(UTC+00:00)

USA 116 - Pass Details

Date: 18 February 2020
Orbit: 405 x 834 km, 97.9° (Epoch: 18 November)

Event Time Altitude Azimuth Distance (km) Brightness Sun altitude
Rises 05:55:46 0° 170° (S) 2,407 7.1 -14.8°
Reaches altitude 10° 05:57:48 10° 173° (S) 1,510 6.1 -14.5°
Maximum altitude 06:00:58 69° 257° (WSW) 445 3.0 -13.9°
Drops below altitude 10° 06:04:04 10° 342° (NNW) 1,477 5.7 -13.4°
Sets 06:06:03 0° 345° (NNW) 2,347 6.8 -13.1°
